Theta_e
322 322 324 324 320 316 318 321 317 318 318 315 316 318 317 319 321 321 324 328 327 328 328 329 332 332 334 335 335 335 335 336 336 334 335 334 334 333 332 333 333 333 333 334 334 333 333 334 335
321 322 323 317 321 320 319 316 317 316 315 313 315 316 316 319 316 317 323 326 326 325 325 325 327 327 330 332 332 332 334 333 332 332 331 331 331 331 330 329 329 330 331 331 330 330 328 328 329
320 320 321 320 318 320 318 315 314 316 314 314 315 314 314 317 315 317 320 325 325 323 321 322 324 324 323 325 329 330 330 331 331 329 328 328 327 325 323 321 321 321 323 325 323 320 319 319 321
320 316 312 318 321 318 316 314 313 314 315 314 314 316 313 314 316 318 320 323 324 323 321 322 326 328 324 321 328 328 328 328 326 324 324 322 320 317 315 315 314 312 314 315 314 313 309 303 303
317 313 318 319 316 314 313 313 310 313 313 313 313 314 313 312 315 317 320 322 322 322 320 320 326 326 324 323 325 324 325 321 319 318 316 314 312 311 310 310 308 306 307 310 310 309 306 306 306
315 311 316 318 317 317 314 312 312 313 313 313 314 313 312 311 315 316 319 320 321 320 319 319 322 322 321 320 318 315 319 315 310 307 307 307 305 302 302 300 299 302 306 306 306 306 308 309 309
317 317 319 317 318 317 315 309 312 312 312 312 311 313 311 307 314 316 317 319 319 319 318 318 318 318 317 314 309 308 312 311 310 309 309 305 300 297 297 299 302 306 308 307 306 304 300 300 300
313 312 316 315 316 317 315 313 313 311 312 310 309 312 312 308 312 313 316 317 317 317 317 316 315 314 311 309 306 307 308 306 307 304 300 298 297 296 296 297 299 306 304 301 301 297 296 296 296
313 312 313 315 318 316 314 314 313 311 313 312 310 310 310 310 309 309 311 315 316 316 316 314 313 311 308 307 307 309 305 302 300 300 298 297 297 296 296 297 297 297 297 297 297 296 295 295 295
315 313 313 313 316 315 315 312 313 313 311 310 311 308 308 308 306 304 303 304 313 315 315 314 310 309 307 305 305 304 302 298 297 298 298 298 297 297 297 297 296 296 296 295 295 295 295 295 295
315 314 314 316 316 314 315 313 311 311 311 309 310 309 304 304 303 303 303 303 305 310 311 311 310 307 304 301 301 301 299 297 297 298 299 297 297 297 296 296 296 296 295 295 295 295 295 294 294
317 314 314 316 317 314 315 313 312 309 314 310 308 308 303 302 302 303 303 303 303 304 306 306 307 305 303 302 299 298 297 297 299 299 298 297 297 296 296 296 296 295 295 295 295 295 294 294 294
316 316 315 314 313 313 313 312 312 311 309 307 307 306 304 304 304 304 305 305 303 302 303 305 305 304 303 302 300 297 297 299 299 298 297 297 296 296 296 296 296 295 295 295 295 295 294 294 293
314 315 314 312 313 313 314 313 313 313 311 308 308 308 304 304 304 304 303 303 304 304 303 303 303 303 303 302 301 298 298 298 298 297 297 297 296 296 295 296 295 295 294 294 294 294 294 293 293
314 314 311 312 312 312 311 313 312 313 312 309 308 306 306 304 305 304 306 304 305 305 304 303 303 302 302 301 300 299 299 298 298 297 296 297 295 295 295 295 295 294 294 294 293 293 293 292 292
314 313 312 312 310 312 311 314 312 310 310 310 309 307 305 306 305 307 307 306 305 304 305 304 303 302 301 301 300 298 298 298 298 297 295 296 295 294 295 295 294 294 293 293 293 293 293 292 292
310 310 310 311 311 312 311 313 312 310 308 309 309 307 307 307 305 307 307 308 307 306 305 304 303 302 301 300 300 298 298 298 298 297 295 294 294 294 294 294 294 293 293 293 293 292 292 291 291
311 310 310 311 312 311 311 312 313 311 308 307 307 305 304 305 307 310 308 308 308 307 305 304 302 301 300 300 299 298 298 298 297 296 296 294 293 293 293 293 293 293 293 293 292 291 290 290 289
309 309 310 309 310 313 312 312 313 313 310 307 308 310 311 310 310 309 310 310 307 305 303 302 300 300 300 299 298 298 297 297 296 296 295 294 293 292 293 292 292 292 292 292 291 290 289 289 289
311 311 311 311 310 309 310 311 311 310 312 312 311 311 310 310 310 304 306 307 306 305 303 301 300 299 299 298 297 296 296 296 296 295 294 294 292 292 292 292 292 291 291 290 290 290 289 289 288
311 312 312 312 310 308 308 311 309 308 309 310 308 309 311 311 312 306 301 304 303 302 301 300 299 299 298 298 297 296 295 294 294 293 293 292 292 291 291 291 291 290 290 289 289 289 289 288 287
313 310 311 310 311 312 309 314 310 309 309 309 309 309 309 309 308 306 301 299 301 301 299 298 298 298 298 297 296 295 295 294 292 292 292 292 291 291 291 291 290 290 289 288 288 288 289 288 287
313 310 309 310 310 310 311 312 312 308 309 309 310 308 308 309 304 303 300 302 301 300 298 298 298 298 297 297 296 295 294 294 293 292 292 291 290 290 289 289 289 289 289 288 287 287 288 288 287
308 310 309 307 308 312 311 311 312 308 309 309 308 308 308 309 304 302 301 301 299 298 297 297 297 297 296 296 295 295 294 294 292 291 291 290 290 289 288 289 288 288 288 288 287 287 287 287 286
310 310 311 310 309 314 309 308 313 310 310 308 309 309 308 307 302 301 299 298 296 296 296 296 296 295 296 296 296 295 295 294 293 292 291 289 289 289 288 288 288 287 287 287 286 286 286 286 285
308 310 314 312 312 314 305 310 312 308 308 307 307 306 304 304 302 301 299 298 297 296 295 295 295 295 295 295 295 294 294 293 292 292 291 290 289 289 288 288 287 287 287 286 286 286 285 285 284
308 310 310 312 297 307 312 310 310 309 309 307 306 305 304 303 302 301 298 297 297 296 295 296 295 295 295 294 294 293 293 292 292 292 291 291 290 289 289 288 287 286 286 286 286 285 284 284 283
308 308 311 310 314 312 310 311 313 311 311 307 306 306 304 302 303 301 298 296 297 297 296 296 296 295 295 294 294 293 293 293 292 291 291 290 290 289 289 288 286 286 285 285 284 284 283 283 282
308 309 308 310 314 317 317 315 308 308 308 308 306 307 303 302 303 301 299 298 298 298 297 296 296 295 295 295 294 293 293 292 291 291 291 291 290 290 289 288 286 285 285 284 283 283 282 283 282
305 309 310 313 314 311 314 314 313 312 311 310 309 306 305 302 302 301 301 298 297 297 296 296 295 295 296 296 294 293 292 291 291 291 290 290 289 289 289 287 286 285 284 283 282 282 281 282 281
Wind_Speed
1 3 4 4 4 5 4 5 2 2 1 2 1 3 6 2 5 5 12 22 17 23 23 20 20 19 18 16 13 14 13 11 10 10 12 10 10 8 7 8 8 7 6 5 6 2 5 3 3
1 2 3 2 4 2 5 5 5 5 4 5 2 4 1 5 3 6 13 22 22 23 23 22 20 20 21 20 18 16 15 13 8 8 8 8 10 9 9 9 9 9 8 5 4 8 7 3 2
1 2 3 4 3 4 4 5 6 2 3 4 2 1 5 4 3 17 9 27 23 22 22 22 21 20 21 20 20 17 14 12 10 10 11 11 10 10 10 9 8 7 9 9 7 7 5 5 4
1 4 4 3 5 7 6 5 5 5 2 1 3 3 2 4 7 16 22 28 26 23 21 21 19 18 18 19 17 15 14 15 13 13 14 13 11 10 10 10 9 7 7 8 8 8 6 5 5
3 3 2 1 5 5 6 3 9 5 3 4 4 4 4 3 7 18 30 29 28 25 22 22 19 17 17 18 18 17 18 16 15 15 14 12 11 9 8 8 8 8 8 8 8 8 8 8 8
3 3 2 3 5 5 4 6 5 4 3 2 3 2 5 3 17 25 31 29 28 27 25 23 21 20 20 19 19 18 17 16 15 13 13 12 11 11 11 10 9 9 9 8 8 9 10 9 9
5 3 4 4 5 5 5 8 5 6 5 6 2 6 2 5 21 28 29 27 28 26 27 25 24 23 21 20 19 18 18 17 16 15 14 14 14 12 11 11 10 10 10 10 9 8 8 8 8
5 4 3 4 3 6 2 3 1 7 8 1 8 6 7 7 25 25 25 26 26 27 26 26 25 25 24 23 20 19 19 18 17 17 16 15 13 12 11 10 10 10 9 9 8 6 6 7 7
3 3 3 5 3 5 0 3 2 1 2 3 7 4 2 8 27 26 25 25 27 29 30 29 29 28 26 24 23 23 21 19 19 19 18 16 15 13 12 11 9 7 6 5 6 6 6 7 7
4 3 8 6 2 4 3 6 4 2 5 5 5 3 3 23 32 26 25 28 35 36 36 34 32 32 29 27 26 25 22 21 21 20 19 18 16 15 13 11 9 8 6 6 7 8 8 8 8
5 6 5 6 5 4 3 3 5 6 8 9 10 10 9 18 23 23 27 31 44 42 38 38 36 34 32 30 28 26 25 24 24 22 20 18 17 16 13 10 8 7 7 5 7 7 8 9 9
3 9 7 6 4 3 4 2 5 10 20 8 14 5 8 14 16 26 27 33 35 40 42 39 37 36 33 30 30 28 28 27 25 23 21 21 19 16 14 11 9 7 5 4 6 7 8 9 9
7 6 7 7 8 6 4 11 8 13 14 9 9 8 12 16 22 27 32 31 32 37 42 43 40 39 37 34 31 31 30 28 25 24 23 22 21 19 16 13 11 8 5 3 4 6 7 8 9
2 5 7 7 10 6 7 8 6 20 5 12 11 16 12 16 23 23 28 35 38 40 42 42 43 41 39 38 35 34 31 28 26 25 25 24 21 20 17 15 12 9 6 3 3 5 7 8 9
3 8 7 10 6 8 7 9 11 25 2 11 11 12 11 18 20 29 40 37 45 46 42 44 45 44 42 40 37 35 32 30 29 27 26 25 23 21 19 17 14 11 7 4 2 4 5 6 9
2 1 5 2 7 4 9 14 13 14 7 17 14 12 11 16 19 35 36 40 38 39 43 44 45 47 45 43 40 36 33 31 30 28 28 27 25 23 21 19 16 11 7 4 1 3 5 8 11
2 6 8 12 10 5 7 11 12 6 9 12 13 12 13 15 13 30 34 42 41 43 42 44 45 48 48 45 41 37 34 32 31 30 29 28 26 24 22 20 16 13 9 5 2 2 5 8 11
8 6 6 8 4 5 7 16 15 12 8 13 13 12 12 14 23 28 30 39 42 43 43 43 44 45 46 42 38 35 33 33 32 32 30 29 27 25 24 22 18 14 11 7 3 1 2 6 11
3 6 8 7 10 6 10 17 18 22 11 11 16 19 21 21 27 23 27 32 37 38 39 43 43 46 46 45 43 37 39 37 35 34 33 32 30 28 26 24 20 17 13 9 6 4 1 4 11
12 18 19 15 15 6 16 23 18 12 19 22 20 21 21 20 21 7 20 27 34 39 41 43 45 48 49 47 42 33 38 41 39 36 34 33 32 30 28 26 22 18 15 12 8 6 3 3 9
15 15 18 19 6 5 9 19 10 13 14 20 15 20 21 26 22 12 9 23 28 34 41 44 46 48 48 45 41 31 32 29 35 36 35 35 33 31 29 26 23 20 16 13 11 8 5 5 4
24 13 14 8 4 12 4 23 6 8 13 11 15 17 18 22 17 14 9 10 27 34 35 37 41 44 45 46 45 41 35 26 32 35 41 37 35 33 31 28 25 22 18 17 14 10 5 4 4
21 5 6 2 4 5 3 6 4 8 7 12 15 15 18 18 14 12 11 19 26 29 35 38 42 44 44 48 45 43 33 30 31 34 38 38 36 34 32 29 27 25 22 18 16 13 9 4 4
2 4 5 4 1 11 10 9 6 6 7 6 10 15 15 18 10 8 6 14 20 26 31 37 40 42 44 47 44 44 42 38 32 37 39 43 40 38 35 32 29 26 23 20 18 14 10 7 4
4 5 3 3 1 11 9 6 19 6 11 11 14 15 13 12 5 7 9 10 18 29 33 34 38 38 45 47 49 50 48 44 42 41 40 39 42 45 42 37 33 29 24 20 18 15 11 7 6
11 12 7 7 9 19 4 10 12 11 11 11 10 13 11 8 8 10 10 11 18 25 31 32 36 36 43 49 50 49 47 45 41 43 41 43 44 45 44 40 36 31 26 23 20 16 12 9 8
2 5 13 2 2 1 10 14 10 4 9 7 10 13 16 10 9 10 7 9 17 23 30 37 36 36 42 43 40 44 44 44 42 42 44 43 42 43 42 41 36 32 29 26 23 19 15 11 8
7 3 2 2 5 8 10 9 15 9 6 7 13 14 14 9 4 2 5 7 16 22 29 34 37 40 37 38 41 43 45 47 41 41 43 43 41 40 40 41 38 34 31 27 24 21 17 13 10
2 5 5 3 4 12 16 15 6 8 1 6 10 10 9 10 7 8 7 10 17 21 27 32 34 35 38 45 46 45 47 47 45 44 43 45 43 41 41 43 40 37 33 29 26 22 19 15 13
6 15 16 9 10 5 4 10 29 28 20 20 18 10 6 8 10 9 8 7 13 21 26 35 35 38 49 47 42 46 44 45 46 47 46 45 43 41 41 43 43 40 36 32 29 25 22 18 16
Wind_Direction
8 330 342 30 39 56 278 270 253 178 164 237 136 152 183 127 164 207 148 175 174 173 177 177 178 172 164 157 158 153 146 143 137 139 135 136 128 117 108 89 90 121 121 90 64 60 47 78 66
353 13 49 78 88 26 270 255 213 212 187 140 129 109 114 217 141 146 147 181 182 176 180 181 179 175 176 177 174 172 163 161 147 142 157 140 116 117 113 98 94 80 78 84 66 47 38 42 36
3 4 83 100 124 199 230 241 217 227 185 189 125 284 161 208 168 173 186 174 178 179 181 183 179 179 180 182 183 184 172 155 148 139 129 126 121 114 107 99 96 93 77 70 59 39 14 5 347
88 23 31 95 235 257 232 240 199 157 302 333 130 233 294 198 173 183 171 177 180 179 178 178 171 172 174 172 161 161 154 151 146 137 130 125 121 113 103 97 95 96 87 70 56 44 27 5 348
59 59 61 300 255 256 253 212 168 179 205 204 161 251 247 227 187 173 172 180 184 181 183 179 170 170 168 164 162 158 155 151 149 146 145 142 136 125 115 106 102 94 86 73 63 51 44 37 30
42 95 68 239 250 260 262 173 174 200 209 164 177 166 247 230 169 170 175 184 190 186 185 184 177 175 171 168 167 165 162 166 165 162 151 146 140 133 127 119 112 106 96 86 75 61 57 52 50
114 95 219 234 257 296 234 154 191 202 184 236 166 169 258 196 179 174 180 189 191 192 190 190 187 182 176 176 178 175 170 169 166 159 152 146 141 138 132 123 113 109 99 89 78 71 49 44 39
112 103 283 256 252 269 266 198 184 169 235 77 163 233 253 218 178 177 182 190 194 197 199 198 196 192 186 185 186 182 179 176 172 168 164 157 150 144 141 136 124 112 100 88 79 63 44 36 30
95 68 242 247 228 266 190 240 257 336 190 221 208 183 280 163 171 175 180 190 197 204 206 204 202 198 193 193 189 187 189 188 183 177 168 161 161 158 155 153 142 133 111 89 67 50 43 42 34
114 147 227 219 223 234 240 206 226 204 235 241 272 257 147 162 172 179 189 195 199 205 207 208 205 202 199 198 197 195 196 192 185 180 178 177 171 166 161 157 148 134 107 84 70 51 41 35 30
188 213 224 263 244 210 231 233 202 199 254 214 215 230 168 175 186 195 203 203 204 209 210 209 208 205 203 201 199 198 196 190 185 186 183 179 174 170 163 159 147 130 109 85 61 42 32 24 21
221 240 228 262 255 287 250 243 232 198 246 201 226 196 167 192 200 204 209 212 211 213 215 213 210 207 206 204 202 200 196 195 194 191 188 185 180 174 170 166 157 144 117 81 53 37 28 19 12
221 247 235 251 276 262 290 247 244 263 246 244 242 200 198 204 213 216 219 222 218 217 219 217 211 210 209 207 206 201 201 202 197 194 193 191 188 182 177 174 170 161 141 114 51 30 23 15 7
247 274 270 265 255 253 212 267 146 266 256 240 239 239 216 211 217 217 222 223 221 223 223 218 215 213 211 210 209 207 206 203 199 198 198 195 195 189 183 181 176 171 162 127 63 35 18 5 358
313 309 310 252 242 232 177 286 223 247 225 275 250 249 236 222 220 219 226 221 222 225 223 220 216 213 213 213 212 210 208 205 204 202 201 199 196 193 190 186 182 178 168 140 90 43 18 1 352
310 355 303 310 141 248 143 263 251 252 211 257 264 260 244 244 224 231 231 231 229 222 222 221 216 215 213 213 211 209 209 208 208 205 204 201 199 197 193 190 187 179 168 160 99 21 1 357 345
265 236 217 303 206 156 183 252 265 235 204 254 263 261 260 266 250 240 230 232 231 230 223 219 214 213 211 212 211 210 210 210 209 208 206 203 201 198 198 193 188 181 180 176 159 20 360 351 339
220 220 246 240 246 192 229 251 269 272 201 241 261 267 262 258 254 250 231 234 234 231 225 221 211 210 207 208 208 208 209 211 211 209 207 206 204 202 199 196 191 186 186 180 176 168 3 351 343
207 224 234 251 267 234 233 246 251 265 271 255 258 260 258 254 261 243 233 235 229 226 215 212 202 205 200 200 197 199 202 205 208 211 210 209 207 204 201 198 193 190 190 184 181 175 100 17 360
241 255 261 269 257 216 267 262 263 256 261 261 259 262 256 256 259 237 225 226 219 214 209 202 200 200 199 196 195 196 200 205 209 210 210 211 208 205 203 201 196 193 190 188 188 193 163 73 22
232 236 252 255 315 247 290 276 260 253 255 264 253 249 260 257 268 252 208 217 210 200 200 197 195 197 195 196 193 194 202 206 207 210 210 211 210 208 206 202 200 197 195 193 193 194 173 130 92
260 222 254 260 300 277 128 292 236 251 247 252 255 259 253 262 258 257 208 199 201 205 199 193 191 194 193 197 195 193 193 197 206 207 209 209 210 210 208 204 201 201 198 197 195 193 179 137 113
253 195 249 226 227 325 200 267 197 213 252 248 252 247 262 264 242 236 212 210 204 197 191 190 191 195 195 200 200 198 197 203 209 209 211 212 212 212 210 206 204 202 201 198 198 192 184 174 146
139 97 53 58 102 266 193 207 308 176 216 268 258 255 248 261 259 226 213 180 181 188 187 187 190 192 199 202 202 205 205 206 203 206 209 211 211 211 210 208 209 207 204 200 199 198 192 172 179
149 109 292 308 70 250 186 208 249 252 243 223 248 249 258 257 216 196 188 172 165 178 184 186 189 191 201 204 207 211 213 211 210 209 207 206 209 211 209 206 205 206 205 202 199 196 194 186 199
215 194 197 207 252 272 115 245 266 226 244 243 278 284 300 289 229 209 203 183 182 183 184 186 192 197 202 205 208 210 211 215 214 219 215 214 213 214 212 207 206 203 200 199 198 203 206 196 199
189 188 236 338 46 354 263 269 284 247 283 301 291 295 274 252 235 226 192 192 177 184 191 193 199 200 207 209 207 210 212 215 214 219 223 224 220 217 214 210 205 202 200 199 200 202 204 202 206
192 177 74 213 200 247 273 267 270 297 277 313 358 331 311 301 319 281 196 212 203 198 202 204 206 208 206 212 214 215 216 219 218 221 221 223 222 219 215 209 205 202 200 199 201 202 202 199 201
189 245 230 199 184 253 258 266 221 219 23 320 310 316 322 303 242 227 222 215 220 217 214 213 215 213 213 218 217 218 221 220 219 222 223 223 222 220 216 207 202 201 200 201 201 203 206 202 196
215 261 240 238 239 215 231 266 286 272 281 290 282 289 322 274 247 226 225 214 211 222 220 217 216 215 220 219 215 219 220 221 217 221 224 223 220 217 214 206 202 201 201 202 203 203 205 202 197